Retour au catalogue

CZ-6A DEB

ActifSSO
NORAD 55886·DEBRIS·🇨🇳 China

Lancé Nov 11, 2022 depuis Taiyuan Satellite Launch Center

Loading…

Prochains Passages (prochaines 24 heures)

TLE

FraisSource: Space-Track

Époque: Sep 14, 2026, 13:53 UTC

1 55886U 22151AAJ 26257.57912598  .00003602  00000-0  10342-2 0  9994
2 55886  98.7475 302.8365 0037783  21.1709 339.1035 14.45101280109302

Suivez CZ-6A DEB en temps réel avec AllMySat

Download on the App Store